This is the latest recevied weather packets stored in our database for station/object N7SHZ. If no packets are shown the sender has not sent any weather packets the latest 1 day(s).
| Time | Temp. | Humidity | Pressure | Rain* | Wind** | Luminosity | Snow |
|---|---|---|---|---|---|---|---|
| 1777996279 | -1.67° C | 99% | 1027.5 hPa | - | 7.6 m/s, 92° | 70 W/m² | - |
| 1777995975 | -1.67° C | 99% | 1027.5 hPa | - | 6.26 m/s, 96° | 51 W/m² | - |
| 1777995671 | -1.67° C | 99% | 1027.5 hPa | - | 7.15 m/s, 92° | 36 W/m² | - |
| 1777995369 | -1.67° C | 99% | 1027.5 hPa | - | 7.6 m/s, 103° | 30 W/m² | - |
| 1777995066 | -1.67° C | 99% | 1027.4 hPa | - | 6.26 m/s, 99° | 33 W/m² | - |
| 1777994773 | -1.67° C | 99% | 1027.5 hPa | - | 6.71 m/s, 91° | 38 W/m² | - |
| 1777994458 | -1.67° C | 99% | 1027.4 hPa | - | 6.71 m/s, 79° | 32 W/m² | - |
| 1777994153 | -1.67° C | 99% | 1027.5 hPa | - | 5.81 m/s, 94° | 36 W/m² | - |
| 1777993852 | -1.67° C | 99% | 1027.3 hPa | - | 4.92 m/s, 100° | 73 W/m² | - |
| 1777993547 | -1.67° C | 99% | 1027 hPa | - | 4.47 m/s, 101° | 108 W/m² | - |
| 1777993244 | -1.67° C | 99% | 1027.3 hPa | - | 5.36 m/s, 104° | 101 W/m² | - |
| 1777992940 | -1.67° C | 99% | 1027.4 hPa | - | 3.58 m/s, 109° | 165 W/m² | - |
| 1777992638 | -1.11° C | 99% | 1027.1 hPa | - | 4.02 m/s, 115° | 158 W/m² | - |
| 1777992336 | -1.67° C | 99% | 1027.1 hPa | - | 4.47 m/s, 109° | 183 W/m² | - |
| 1777992033 | -1.67° C | 99% | 1027.1 hPa | - | 4.47 m/s, 104° | 116 W/m² | - |
| 1777991731 | -1.67° C | 99% | 1027.4 hPa | - | 3.58 m/s, 110° | 115 W/m² | - |
| 1777991428 | -1.67° C | 99% | 1027.1 hPa | - | 4.92 m/s, 111° | 87 W/m² | - |
| 1777991125 | -1.67° C | 99% | 1027.3 hPa | - | 5.81 m/s, 108° | 78 W/m² | - |
| 1777990822 | -1.67° C | 99% | 1027.3 hPa | - | 4.47 m/s, 112° | 55 W/m² | - |
| 1777990519 | -1.67° C | 99% | 1027.1 hPa | - | 4.47 m/s, 107° | 38 W/m² | - |
| 1777990216 | -1.67° C | 99% | 1027 hPa | - | 4.92 m/s, 103° | 26 W/m² | - |
| 1777989913 | -1.67° C | 99% | 1027.3 hPa | - | 5.36 m/s, 106° | 16 W/m² | - |
| 1777989610 | -1.67° C | 99% | 1027.3 hPa | - | 4.47 m/s, 100° | 13 W/m² | - |
| 1777989306 | -1.67° C | 99% | 1027.3 hPa | - | 7.15 m/s, 98° | 10 W/m² | - |
| 1777989002 | -1.67° C | 99% | 1027 hPa | - | 7.15 m/s, 88° | 7 W/m² | - |
* Rain since midnight (hover to see other rain measurements)
** Current wind speed in m/s (hover to see current wind gust speed)